Location: Madrid
(40.4000°N, 3.6830°W)
Time: 15:19:38
(UTC+02:00)

ISS - Pass Details

Date: 14 September 2019
Orbit: 411 x 421 km, 51.6° (Epoch: 18 September)

Event Time Altitude Azimuth Distance (km) Brightness Sun altitude
Exits shadow 06:18:08 32° 322° (NW) 739 -2.7 -18.5°
Maximum altitude 06:19:30 65° 34° (NE) 459 -3.5 -18.3°
Drops below altitude 10° 06:22:49 10° 118° (ESE) 1,487 -0.4 -17.7°
Sets 06:24:55 0° 121° (ESE) 2,348 0.6 -17.3°
